www.pogodaiklimat.ru

Погода и климат >> Архив погоды >> Украина >> Львов


АРХИВ ПОГОДЫ в Львове

Время (UTC), дата Ветер
(напр.,м/с)
 
Видим.   Явления Облачность Т
(С)
Тd
(С)
f
(%)
Тe
(С)
Тes
(С)
Комфортность P
(гПа)
Po
(гПа)
Тmin
(С)
Tmax
(С)
R
(мм)
R24
(мм)
S
(см)
12 13.09 СЗ 3 10 км 6/6 1380 м
[Cu hum]
+22.1 +11.6 51 +24 +27 комфорт 1026.2 988.9
15 13.09 З 5 10 км 4/4 1000 м
[Cu hum]
+22.3 +10.1 46 +24 +25 комфорт 1025.2 987.9
18 13.09 штиль 0 3400 м дым 4/0
[Ac trans]
+15.9 +13.0 83 +16 +16 тепло 1026.3 988.2 +23.3
21 13.09 штиль 0 10 км 6/0
[Ac trans]
+16.9 +12.6 76 +17 +17 тепло 1025.9 987.9
00 14.09 СЗ 2 10 км 8/8 1380 м
[Sc]
+15.0 +12.8 87 +15 +15 тепло 1026.4 988.2
03 14.09 С 3 10 км 8/8 500 м
[Sc]
+13.8 +8.5 70 +13 +13 тепло 1027.8 989.3
06 14.09 С 3 10 км {ливн. осадки} 6/0
[Ci fib]
+13.8 +8.4 70 +13 +14 тепло 1029.8 991.2 +12.4 0.0
09 14.09 СЗ 4 10 км 6/6 1050 м
[Cu hum]
+16.1 +7.1 55 +15 +18 тепло 1030.5 992.2
12 14.09 С 3 10 км 6/6 1300 м
[Cu hum]
+17.5 +4.8 43 +18 +20 тепло 1029.5 991.4
15 14.09 СЗ 2 10 км 8/8 1380 м
[Cu hum]
+17.7 +5.4 44 +18 +18 тепло 1028.4 990.4
18 14.09 штиль 0 10 км 4/0
[Ac trans]
+10.2 +7.3 82 +10 +10 по сезону 1030.4 991.3 +18.4
21 14.09 штиль 0 6000 м дымка 3/0
[Ci fib]
+6.7 +6.3 97 +6 +6 прохладно 1030.8 991.2
00 15.09 штиль 0 9000 м дымка ясно +5.0 +4.3 95 +4 +4 прохладно 1030.6 990.8
03 15.09 штиль 0 4800 м дымка ясно +3.3 +2.6 95 +2 +2 холодно 1029.8 989.8
06 15.09 штиль 0 10 км {туман} 4/0
[Ci fib]
+7.3 +6.2 93 +6 +8 прохладно 1028.9 989.4 +2.8
09 15.09 ЮЗ 3 10 км 6/0
[Ci fib]
+16.4 +5.7 49 +16 +22 тепло 1025.9 987.8
12 15.09 З 4 10 км 4/0
[Ci fib]
+19.4 +4.0 36 +20 +25 тепло 1022.7 985.1
15 15.09 З 3 10 км 4/0
[Ci fib]
+20.5 +4.9 36 +22 +23 комфорт 1019.8 982.4
18 15.09 штиль 0 10 км 6/0
[Ci fib]
+13.7 +5.5 58 +14 +14 тепло 1019.5 981.3 +20.9
21 15.09 штиль 0 10 км 6/0
[Ci fib]
+11.1 +6.0 71 +11 +11 по сезону 1018.9 980.4
00 16.09 ЮЗ 1 10 км 6/0
[Ci fib]
+10.9 +6.3 73 +11 +11 по сезону 1018.2 979.7
03 16.09 штиль 0 10 км 4/0
[Ci fib]
+9.2 +6.0 80 +9 +9 по сезону 1017.3 978.6
06 16.09 ЮЗ 1 10 км 8/0
[Ac trans]
+13.2 +8.5 73 +13 +14 тепло 1016.4 978.3 +7.3
09 16.09 З 6 10 км 6/0
[Ac trans]
+20.3 +10.9 55 +22 +24 комфорт 1015.1 977.9
12 16.09 СЗ 6 10 км 8/4 1000 м
[Cb calv Ac trans]
+19.0 +9.7 55 +19 +20 тепло 1014.5 977.2
15 16.09 СЗ 5 10 км 9/9 1300 м
[Cb calv]
+17.6 +10.6 64 +17 +17 тепло 1013.6 976.2
18 16.09 СЗ 3 10 км слаб. ливневой дождь 10/10 1320 м
[Cb calv]
+13.7 +8.8 72 +13 +13 по сезону 1014.5 976.5 +21.4 0.0
21 16.09 З 2 10 км {ливн. осадки} 10/10 1410 м
[Sc]
+12.4 +9.9 85 +11 +11 по сезону 1014.4 976.3
00 17.09 З 1 10 км {ливн. осадки} 10/10 1470 м
[Sc]
+12.1 +10.4 89 +12 +12 тепло 1014.2 976.0
03 17.09 З 1 10 км 10/10 1200 м
[Sc]
+11.6 +9.7 88 +11 +11 по сезону 1013.9 975.7
06 17.09 З 2 10 км 6/6 210 м
[St]
+11.3 +9.5 89 +10 +11 по сезону 1014.5 976.2 +10.8 0.0
09 17.09 З 4 10 км 6/6 1020 м
[Sc]
+14.5 +6.3 58 +13 +16 по сезону 1013.4 975.5
12 17.09 З 4 10 км 6/6 1380 м
[Sc]
+15.7 +6.4 54 +15 +17 по сезону 1011.5 973.9
15 17.09 З 5 10 км 8/8 1200 м
[Sc]
+14.8 +6.2 56 +13 +14 по сезону 1009.9 972.2
18 17.09 штиль 0 10 км 4/0
[Ac trans]
+10.2 +6.5 78 +10 +10 по сезону 1009.8 971.5 +16.4
21 17.09 З 4 10 км 8/8 1080 м
[Sc]
+12.1 +7.1 71 +10 +10 по сезону 1008.1 970.1
00 18.09 З 4
{18}
10 км {ливн. осадки} 8/8 1260 м
[Sc]
+8.5 +6.4 87 +5 +5 прохладно 1010.1 971.6
03 18.09 З 5 10 км слаб. ливневой дождь 10/10 700 м
[Cb calv]
+7.3 +5.1 86 +3 +3 холодно 1010.9 972.2
06 18.09 З 7 10 км {ливн. осадки} 8/8 800 м
[Cb calv]
+8.2 +3.6 73 +4 +4 холодно 1012.3 973.6 +7.1 1
09 18.09 З 8 10 км {ливн. осадки} 9/9 750 м
[Cb calv]
+9.5 +4.4 70 +5 +6 очень
холодно
1014.4 975.8
12 18.09 СЗ 8
{18}
10 км {ливн. осадки} 8/8 1200 м
[Sc]
+12.2 +3.3 54 +9 +10 холодно 1016.0 977.7
15 18.09 СЗ 6 10 км 6/6 1380 м
[Sc]
+12.2 +3.0 53 +10 +10 прохладно 1017.7 979.3
18 18.09 З 3 10 км 4/0
[Ac trans]
+9.4 +2.9 64 +7 +7 прохладно 1019.7 980.9 +13.6 0.0
21 18.09 ЮЗ 1 10 км 3/0
[Ac trans]
+6.8 +3.3 78 +6 +6 прохладно 1021.0 981.8
00 19.09 З 2 10 км ясно +5.7 +2.8 82 +3 +3 холодно 1021.2 981.8
03 19.09 СЗ 2 10 км 4/0
[Ac trans]
+4.4 +3.2 92 +2 +2 холодно 1021.3 981.7
06 19.09 З 2 10 км 8/8 570 м
[Sc]
+6.5 +5.1 91 +4 +4 холодно 1022.2 982.9 +1.6
09 19.09 З 5 10 км {ливн. осадки} 8/4 600 м
[Cb calv Ac trans]
+10.9 +6.7 75 +8 +10 прохладно 1022.6 983.9
12 19.09 СЗ 5 10 км в посл. час ливневой дождь 8/4 1000 м
[Cb calv Ac trans]
+12.6 +3.0 52 +11 +12 холодно 1021.9 983.4
15 19.09 СЗ 5 10 км 4/3 1000 м
[Sc Ac trans]
+13.1 +2.2 48 +11 +12 прохладно 1021.5 983.1
18 19.09 штиль 0 10 км 4/0
[Ac trans]
+5.2 +3.3 88 +4 +4 холодно 1023.6 984.1 +14.7 0.3
21 19.09 З 2 10 км 6/0
[Ac trans]
+6.9 +4.9 87 +5 +5 прохладно 1024.1 984.8
00 20.09 З 3 10 км 8/8 1380 м
[Sc]
+6.4 +4.6 88 +3 +3 холодно 1024.6 985.2
03 20.09 СЗ 3 10 км 8/8 150 м
[St]
+5.3 +4.6 95 +2 +2 холодно 1024.8 985.2
06 20.09 З 4 10 км {ливн. осадки} 9/9 150 м
[St]
+5.2 +3.8 91 +1 +1 очень
холодно
1025.0 985.4 +4.8 0.5
09 20.09 З 4 10 км 6/6 600 м
[Sc]
+9.3 +5.4 77 +6 +9 холодно 1025.1 986.1

 

Местоположение метеостанции Львов (Львовская область, Украина): широта 49.82 долгота 23.95 высота над уровнем моря 323 м.

В архиве по умолчанию представлена погода в Львове за последнюю неделю. Архивные данные за месяц целиком и за предыдущие месяцы, начиная с января 2011 года, Вы можете получить, выбрав интересующий диапазон дат из раскрывающегося списка и нажав кнопку "Ввод!".


*Определитесь, кто Вы:
робот инопланетянин человек

Внимание! Время в таблицах - всемирное. Для получения местного времени необходимо прибавить поправку, которая равна 2 ч.

Смотрите также архив погоды в соседних городах и на ближайших метеорологических станциях:

Погода в Каменке-Бугской (Львовская область, Украина) (42 км)
Погода в Яворове (Львовская область, Украина) (43 км)
Погода в Межгорье (Закарпатская область, Украина) (48 км)
Погода в Раве-Русской (Львовская область, Украина) (53 км)
Погода в Мостиске (Львовская область, Украина) (57 км)
Погода в Дрогобыче (Львовская область, Украина) (61 км)
Погода в Стрые (Львовская область, Украина) (64 км)
Погода в Славском (Львовская область, Украина) (84 км)
Погода в Бережанах (Львовская область, Украина) (84 км)
Погода в Пшемысле (Польша) (86 км)

Пояснения к столбцам:

Ветер - указаны скорость ветра в м/с - средняя за 10 мин, порывы в срок и между сроками (в фигурных скобках) и направление, откуда дует ветер: С - северный, СВ - северо-восточный, В - восточный, ЮВ - юго-восточный, Ю - южный, ЮЗ - юго-западный, З - западный, СЗ - северо-западный.
Видимость - горизонтальная дальность видимости в метрах или километрах. При видимости от 1 до 10 км при отсутствии осадков обычно наблюдается дымка, при ухудшении видимости до 1 км и менее - туман. В сухую погоду видимость может ухудшаться дымом, пылью или мглою.
Явления - указаны атмосферные явления, наблюдавшиеся в срок или в последний час перед сроком; фигурными скобками обозначены явления, наблюдавшиеся между сроками (за 1-3 часа до срока); квадратными скобками обозначены град или гололедные отложения с указанием их диаметра в мм.
Облачность - указаны через наклонную черту общая и нижняя облачность в баллах и высота нижней границы облаков в метрах; квадратными скобками обозначены формы облаков: Ci - перистые, Cs - перисто-слоистые, Cc - перисто-кучевые, Ac - высококучевые, As - высокослоистые, Sc - слоисто-кучевые, Ns - слоисто-дождевые, Cu - кучевые, Cb - кучево-дождевые. Подробнее классификацию облаков см. в Атласе облаков (PDF).
T - Температура воздуха - температура, измеренная на высоте 2 м над землей.
Td - Температура точки росы - температура, при понижении до которой содержащийся в воздухе водяной пар достигнет насыщения.
f - Относительная влажность воздуха - влажноcть воздуха, измеренная на высоте 2 м над землей.
Te - Эффективная температура - температура, которую ощущает одетый по сезону человек в тени. Характеристика душности погоды. При расчете учитывается влияние влажности воздуха и скорости ветра на теплоощущения человека.
Tes - Эффективная температура на солнце - температура, которую ощущает человек, с поправкой на солнечный нагрев. Характеристика знойности погоды. Зависит от высоты солнца над горизонтом, облачности и скорости ветра. Ночью, в пасмурную погоду, а также при ветре 12 м/с и более поправка равна нулю.
P - Атмосферное давление - приведенное к уровню моря атмосферное давление.
Po - Атмосферное давление - измеренное на уровне метеостанции атмосферное давление.
Tmin - Минимальная температура - минимум температуры воздуха на высоте 2 м над землей.
Tmax - Максимальная температура - максимум температуры воздуха на высоте 2 м над землей.
R - Количество осадков - Количество выпавших осадков за период времени, мм. При наведении курсора мыши на число - период времени, за который выпало указанное количество осадков.
R24 - Количество осадков - Количество выпавших осадков за 24 часа, мм.
S - Снежный покров - Высота снежного покрова, см. При наведении курсора мыши на число - состояние снежного покрова и степень покрытия местности в баллах.